Location: Fontevrault
(47.1823°N, 0.0493°E)
Time: 08:29:38
(UTC+00:00)

Cosmos 2219 Rocket - Pass Details

Date: 16 June 2021
Orbit: 829 x 845 km, 71.0° (Epoch: 01 August)

Event Time Altitude Azimuth Distance (km) Brightness Sun altitude
Exits shadow 23:06:01 11° 224° (SW) 2,381 4.2 -18.4°
Maximum altitude 23:11:21 57° 302° (WNW) 994 2.8 -18.6°
Drops below altitude 10° 23:16:57 10° 21° (NNE) 2,474 5.5 -18.8°
Sets 23:19:28 0° 25° (NNE) 3,411 6.3 -18.8°
